Volver al catálogo

STARLINK-36721

ActivoComunicacionesVLEO
NORAD 67916·PAYLOAD·🇺🇸 United States

Lanzado Feb 22, 2026 desde Vandenberg Space Force Base

Loading…

Próximos Pases (próximas 24 horas)

TLE

ActualizadoSource: CelesTrak SupGP

Época: Sep 14, 2026, 21:30 UTC

1 67916C 26036N   26257.89631944  .00036089  00000+0  13077-2 0  2574
2 67916  43.0013 256.4591 0001305 260.6656  31.6834 15.27548138    14

Sigue STARLINK-36721 en tiempo real con AllMySat

Download on the App Store